Weather Roundup
Issued by NWS

Home | Current Version | Previous Version | Graphics & Text | Print | Product List | Glossary Off
Versions: 1 2 3 4 5 6 7 8 9 10 11 12 13 14 15 16 17 18 19 20 21 22 23 24 25 26 27 28 29 30 31 32 33 34 35 36 37 38 39 40 41 42 43 44 45 46 47 48 49 50

972
NZUS93 KARX 120410
HRRWXR

CURRENT HOURLY OBSERVATIONS ACROSS
MUCH OF THE UPPER MISSISSIPPI VALLEY
NATIONAL WEATHER SERVICE LA CROSSE WI
1000 PM CST MON DEC 11 2017


...SOUTHEAST MINNESOTA...


CITY           SKY/WX    TMP DP  RH WIND       PRES   REMARKS
ROCHESTER      CLEAR     19  12  74 N22G31    30.12R WCI   2
ROCHESTER/MAYO FAIR      21  13  72 NW10G25   30.14R WCI  10
WINONA           N/A     23  12  63 NW13G21   30.14R WCI  11
AUSTIN         CLEAR     21  12  68 N20G25    30.14R WCI   6
ALBERT LEA     CLEAR     21  16  79 NW9G16    30.17R WCI  11
DODGE CENTER   PTCLDY    19  12  73 NW17      30.14R WCI   4
PRESTON        PTCLDY    21  14  74 NW15      30.10R WCI   7
OWATONNA       CLEAR     19  12  73 NW13      30.17R WCI   7
FARIBAULT      CLEAR     19  12  73 NW8       30.19R WCI   9
$$

...ELSEWHERE IN MINNESOTA...


CITY           SKY/WX    TMP DP  RH WIND       PRES   REMARKS
MINNEAPOLIS    CLEAR     20  10  65 N13       30.21R WCI   7
INTNL FALLS    CLEAR      3  -2  79 NW7       30.20S WCI  -9
DULUTH         FLURRIES  10   3  73 NW15G22   30.10R WCI  -7
RED WING       CLEAR     21   9  58 NW8       30.17R WCI  12
REDWOOD FALLS  CLEAR     14   7  73 NW12G23   30.30R WCI   0
MANKATO        CLEAR     17  12  80 NW16      30.23R WCI   2
WORTHINGTON    CLEAR     15   9  76 N21       30.28R WCI  -2
FAIRMONT       CLEAR     15  11  83 NW23G29   30.24R WCI  -3
$$

...SOUTHWEST WISCONSIN...


CITY           SKY/WX    TMP DP  RH WIND       PRES   REMARKS
LA CROSSE      PTCLDY    24  11  57 N15       30.10R WCI  11
PRAIRIE DU CHI CLOUDY    28  14  57 NW20G25   30.07R WCI  14
BOSCOBEL       CLOUDY    28  14  55 N13G36    30.06R WCI  17
LONE ROCK      CLOUDY    28  17  63 NW20G26   30.02R WCI  15
PLATTEVILLE    MOCLDY    30  21  68 NW22G31   29.98R WCI  17
FORT MC COY    PTCLDY    22  13  67 NW12G26   30.08R WCI  11
CAMP DOUGLAS   MOCLDY    21  10  63 NW14      30.02R WCI   8
MAUSTON-NEW LI CLOUDY    24  11  58 NW17G28   30.02R WCI  10
VIROQUA        MOCLDY    22  13  70 N20G26    30.03R WCI   6
WIS DELLS      FLURRIES  25  15  65 NW14G21   29.99R WCI  13
$$

...ELSEWHERE IN WISCONSIN...


CITY           SKY/WX    TMP DP  RH WIND       PRES   REMARKS
MILWAUKEE      CLOUDY    32  22  66 NW15G24   29.86R WCI  22
MADISON        FLURRIES  28  18  66 N15G30    29.94R WCI  16
GREEN BAY      FLURRIES  23  13  65 N14G23    29.93R WCI  11
EAU CLAIRE     PTCLDY    18   8  65 N12       30.11R WCI   5
BLACK RVR FLS  FAIR      21   9  58 NW9G20    30.08R WCI  11
MEDFORD        CLOUDY    15   6  68 N13G20    30.00R WCI   1
WAUSAU         CLOUDY    19   7  59 N20G31    29.97R WCI   3
WIS RAPIDS     MOCLDY    20   9  62 N18G29    30.01R WCI   5
MARSHFIELD     MOCLDY    19   9  65 NW20      29.99R WCI   3
RICE LAKE      MOCLDY    17   8  68 NW9       30.14R WCI   5
$$

...NORTHEAST IOWA...


CITY           SKY/WX    TMP DP  RH WIND       PRES   REMARKS
WATERLOO       CLEAR     25  15  66 N25G36    30.12R WCI   9
DUBUQUE        CLOUDY    30  20  66 NW21      29.99R WCI  17
DECORAH        PTCLDY    23  14  68 NW21G32   30.07R WCI   8
MASON CITY     CLOUDY    23  15  71 N22       30.18R WCI   8
CHARLES CITY   MOCLDY    25  16  68 NW21G32   30.14R WCI  10
OELWEIN        CLOUDY    27  19  74 N21G33    30.09R WCI  13
$$

...ELSEWHERE IN IOWA...


CITY           SKY/WX    TMP DP  RH WIND       PRES   REMARKS
DES MOINES     MOCLDY    27  17  66 NW16G24   30.20R WCI  15
IOWA CITY      CLOUDY    36  25  64 NW14G23   30.07R WCI  27
FORT DODGE     CLOUDY    21  14  74 NW16G25   30.24R WCI   7
MARSHALLTOWN   CLOUDY    27  20  75 NW18G30   30.14R WCI  14
CEDAR RAPIDS   CLOUDY    32  23  69 NW25G35   30.06R WCI  19
$$

...NORTHERN ILLINOIS...


CITY           SKY/WX    TMP DP  RH WIND       PRES   REMARKS
CHICAGO-OHARE  CLOUDY    32  26  78 NW23G35   29.86R WCI  19
CHICAGO-MIDWAY CLOUDY    33  28  81 N18       29.86R WCI  22
MOLINE         CLOUDY    35  26  69 NW20G28   30.00R WCI  24
ROCKFORD       CLOUDY    31  22  69 N20G26    29.94R WCI  19
PEORIA         CLOUDY    36  29  75 N12G25    29.97R WCI  28
$$

NOTE: "FAIR" INDICATES FEW OR NO CLOUDS BELOW 12,000 FEET WITH NO
SIGNIFICANT WEATHER AND/OR OBSTRUCTIONS TO VISIBILITY. WIND
SPEEDS ARE IN MILES-PER-HOUR.




USA.gov is the U.S. government's official web portal to all federal, state and local government web resources and services.